Tracking 25648 objects as of 17-May-2022
HD Live streaming from Space Station
objects crossing your sky now

ONEWEB-0208

Track ONEWEB-0208 now!
10-day predictions
ONEWEB-0208 is classified as:


NORAD ID: 48243
Int'l Code: 2021-031AK
Perigee: 1,211.8 km
Apogee: 1,214.1 km
Inclination: 87.9 °
Period: 109.5 minutes
Semi major axis: 7583 km
RCS: Unknown
Launch date: April 25, 2021
Source: United Kingdom (UK)
Launch site: VOSTOCHNY COSMODROME (VOSTO)
aabbcc
Your satellite tracking list
Your tracking list is empty




NASA's NSSDC Master Catalog

Two Line Element Set (TLE):
1 48243U 21031AK  22137.17447879  .00000185  00000-0  46370-3 0  9997
2 48243  87.9032 226.1910 0001487 113.1491 246.9795 13.14501652 52291
Source of the keplerian elements: AFSPC